www.pogodaiklimat.ru

Погода и климат >> Архив погоды >> Россия >> Крым >> Феодосия


АРХИВ ПОГОДЫ в Феодосии

Время (UTC), дата Ветер
(напр.,м/с)
 
Видим.   Явления Облачность Т
(С)
Тd
(С)
f
(%)
Тe
(С)
Тes
(С)
Комфортность P
(гПа)
Po
(гПа)
Тmin
(С)
Tmax
(С)
R
(мм)
R24
(мм)
S
(см)
15 9.09 В 6-12
{12}
10 км ясно +24.8 +11.4 43 +26 +26 жарко 1016.9 1013.8
18 9.09 В 4
{12}
10 км ясно +22.6 +16.8 70 +27 +27 душно 1017.8 1014.7 +26.0
21 9.09 В 4 10 км ясно +21.6 +15.7 69 +25 +25 комфорт 1019.0 1016.0
00 10.09 СВ 3 10 км ясно +19.8 +13.0 65 +22 +22 комфорт 1017.8 1014.7
03 10.09 В 2 20 км ясно +18.1 +12.2 68 +19 +19 тепло 1017.0 1013.8 +17.3
06 10.09 В 5
{10}
10 км ясно +21.0 +13.7 63 +24 +26 комфорт 1017.4 1014.3 +17.3
09 10.09 В 5
{10}
10 км ясно +23.6 +13.7 54 +26 +32 жарко 1019.0 1016.0
12 10.09 В 4 10 км ясно +25.9 +15.6 53 +29 +35 душно 1019.0 1016.0
15 10.09 В 5
{10}
10 км ясно +24.9 +10.4 40 +26 +26 жарко 1019.0 1016.0
18 10.09 СВ 3
{11}
10 км ясно +21.4 +13.8 62 +24 +24 комфорт 1019.2 1016.1 +26.4
21 10.09 В 5 10 км ясно +22.1 +14.5 62 +25 +25 комфорт 1020.3 1017.3
00 11.09 В 5
{10}
10 км ясно +21.7 +13.1 58 +24 +24 комфорт 1020.4 1017.3
03 11.09 СВ 5
{10}
10 км ясно +20.2 +13.0 63 +22 +22 комфорт 1019.7 1016.5 +20.0
06 11.09 В 5
{10}
10 км ясно +22.2 +14.8 63 +26 +28 душно 1020.7 1017.6 +19.3
09 11.09 В 5
{10}
10 км ясно +24.4 +14.2 53 +27 +33 жарко 1021.7 1018.7
12 11.09 В 3
{10}
10 км ясно +26.6 +18.2 60 +31 +38 душно 1021.7 1018.7
15 11.09 СВ 4 10 км 4/0
[Ac trans]
+25.0 +15.9 57 +28 +28 жарко 1021.7 1018.7
18 11.09 СВ 4 10 км ясно +22.4 +17.1 72 +27 +27 душно 1023.0 1020.0 +26.6
21 11.09 СВ 5
{10}
10 км ясно +22.3 +14.2 60 +26 +26 жарко 1023.1 1020.0
00 12.09 СВ 5
{10}
10 км ясно +21.4 +12.3 56 +24 +24 комфорт 1023.1 1020.0
03 12.09 СВ 5 10 км ясно +19.8 +11.5 59 +21 +21 комфорт 1022.1 1018.9 +18.0
06 12.09 В 6-12
{13}
20 км ясно +23.6 +11.8 47 +25 +27 комфорт 1022.6 1019.5 +18.0
09 12.09 В 6 20 км ясно +25.4 +7.5 32 +25 +30 комфорт 1023.0 1020.0
12 12.09 В 4
{12}
20 км ясно +25.8 +13.3 46 +28 +33 жарко 1023.0 1020.0
15 12.09 СВ 4
{10}
20 км ясно +24.4 +11.0 43 +26 +26 жарко 1023.0 1020.0
18 12.09 СВ 3 20 км ясно +21.6 +14.5 64 +25 +25 комфорт 1022.5 1019.3 +26.1
21 12.09 СВ 4 20 км ясно +21.4 +15.0 67 +25 +25 комфорт 1021.9 1018.7
00 13.09 СВ 4 20 км ясно +21.0 +15.8 72 +25 +25 комфорт 1021.8 1018.7
03 13.09 СЗ 2 20 км ясно +17.8 +15.7 88 +18 +18 по сезону 1021.6 1018.4 +17.8
06 13.09 В 4 20 км ясно +23.9 +17.2 66 +28 +31 душно 1023.0 1020.0 +17.5
09 13.09 В 5
{11}
20 км 3/3 600 м
[Cu hum]
+25.6 +11.7 42 +27 +32 жарко 1023.0 1020.0
12 13.09 В 5 20 км ясно +26.1 +11.8 41 +27 +32 жарко 1021.7 1018.7
15 13.09 СВ 4
{11}
10 км ясно +24.0 +12.9 50 +26 +26 жарко 1021.7 1018.7
18 13.09 СЗ 2 20 км ясно +19.9 +17.3 85 +23 +23 комфорт 1021.8 1018.7 +26.4
21 13.09 СЗ 2 20 км ясно +20.1 +14.0 68 +23 +23 комфорт 1021.8 1018.7
00 14.09 З 2 20 км ясно +18.8 +15.0 79 +20 +20 тепло 1020.8 1017.6
03 14.09 З 1 20 км ясно +17.8 +13.9 78 +19 +19 тепло 1020.7 1017.5 +17.8
06 14.09 С 2 10 км ясно +23.4 +14.4 57 +27 +31 душно 1021.7 1018.7 +16.9
09 14.09 В 3 20 км 3/3 600 м
[Cu hum]
+26.3 +11.6 40 +28 +35 жарко 1021.7 1018.7
12 14.09 В 3 20 км 3/3 600 м
[Cu med, cong]
+28.4 +6.5 25 +27 +33 жарко 1020.3 1017.3
15 14.09 СВ 2 10 км ясно +25.3 +11.5 42 +27 +27 жарко 1019.0 1016.0
18 14.09 штиль 0 20 км 3/0
[Ac trans]
+20.0 +10.9 56 +21 +21 комфорт 1018.8 1015.6 +28.9
21 14.09 СЗ 2 10 км 8/4 600 м
[Sc Ac trans]
+21.6 +10.4 49 +23 +23 комфорт 1020.4 1017.3
00 15.09 СЗ 2 10 км 8/0
[Ac trans Ci fib]
+20.4 +15.4 73 +24 +24 комфорт 1020.4 1017.3
03 15.09 СЗ 2 10 км 4/0
[Ac lent]
+17.3 +12.4 73 +18 +18 по сезону 1021.0 1017.8 +17.3
06 15.09 С 3 10 км 6/6 600 м
[Sc]
+19.6 +13.7 69 +22 +23 комфорт 1022.2 1019.0 +16.7
09 15.09 СВ 3 10 км 3/3 600 м
[Cu hum]
+23.6 +11.0 45 +25 +33 комфорт 1024.3 1021.3
12 15.09 СВ 3 10 км 3/3 600 м
[Cu hum]
+23.4 +8.3 38 +25 +30 комфорт 1023.0 1020.0
15 15.09 С 2 10 км ясно +19.8 +5.8 40 +21 +21 комфорт 1023.1 1020.0
18 15.09 З 1 10 км ясно +16.0 +6.4 53 +17 +17 по сезону 1023.1 1020.0 +24.0
21 15.09 З 2 10 км ясно +14.7 +4.1 49 +15 +15 по сезону 1021.8 1018.7
00 16.09 З 2 10 км ясно +13.9 +1.8 44 +14 +14 по сезону 1021.8 1018.7
03 16.09 СЗ 1 20 км ясно +15.0 +2.0 41 +16 +16 по сезону 1019.8 1016.6 +13.9
06 16.09 СЗ 2 20 км ясно +21.0 +6.5 39 +23 +27 комфорт 1020.4 1017.3 +13.9
09 16.09 В 2 20 км ясно +24.6 +12.2 46 +26 +37 жарко 1019.0 1016.0

 

Местоположение метеостанции Феодосия (Крым, Россия): широта 45.03 долгота 35.38 высота над уровнем моря 26 м.

В архиве по умолчанию представлена погода в Феодосии за последнюю неделю. Архивные данные за месяц целиком и за предыдущие месяцы, начиная с января 2011 года, Вы можете получить, выбрав интересующий диапазон дат из раскрывающегося списка и нажав кнопку "Ввод!".


*Определитесь, кто Вы:
робот инопланетянин человек

Внимание! Время в таблицах - всемирное. Для получения местного времени необходимо прибавить поправку, которая равна 3 ч.

Смотрите также архив погоды в соседних городах и на ближайших метеорологических станциях:

Погода в Владиславовке (Крым, Россия) (16 км)
Погода в Карадаге (Крым, Россия) (20 км)
Погода в Мысовом (Крым, Россия) (58 км)
Погода в Белогорске (Крым, Россия) (61 км)
Погода в Нижнегорском (Крым, Россия) (69 км)
Погода на Ангарском Перевале (Крым, Россия) (87 км)
Погода в Стрелковом (Херсонская область, Украина) (87 км)
Погода в Алуште (Крым, Россия) (87 км)
Погода в Керчи (Крым, Россия) (91 км)
Погода в Симферополе город (Крым, Россия) (100 км)

Пояснения к столбцам:

Ветер - указаны скорость ветра в м/с - средняя за 10 мин, порывы в срок и между сроками (в фигурных скобках) и направление, откуда дует ветер: С - северный, СВ - северо-восточный, В - восточный, ЮВ - юго-восточный, Ю - южный, ЮЗ - юго-западный, З - западный, СЗ - северо-западный.
Видимость - горизонтальная дальность видимости в метрах или километрах. При видимости от 1 до 10 км при отсутствии осадков обычно наблюдается дымка, при ухудшении видимости до 1 км и менее - туман. В сухую погоду видимость может ухудшаться дымом, пылью или мглою.
Явления - указаны атмосферные явления, наблюдавшиеся в срок или в последний час перед сроком; фигурными скобками обозначены явления, наблюдавшиеся между сроками (за 1-3 часа до срока); квадратными скобками обозначены град или гололедные отложения с указанием их диаметра в мм.
Облачность - указаны через наклонную черту общая и нижняя облачность в баллах и высота нижней границы облаков в метрах; квадратными скобками обозначены формы облаков: Ci - перистые, Cs - перисто-слоистые, Cc - перисто-кучевые, Ac - высококучевые, As - высокослоистые, Sc - слоисто-кучевые, Ns - слоисто-дождевые, Cu - кучевые, Cb - кучево-дождевые. Подробнее классификацию облаков см. в Атласе облаков (PDF).
T - Температура воздуха - температура, измеренная на высоте 2 м над землей.
Td - Температура точки росы - температура, при понижении до которой содержащийся в воздухе водяной пар достигнет насыщения.
f - Относительная влажность воздуха - влажноcть воздуха, измеренная на высоте 2 м над землей.
Te - Эффективная температура - температура, которую ощущает одетый по сезону человек в тени. Характеристика душности погоды. При расчете учитывается влияние влажности воздуха и скорости ветра на теплоощущения человека.
Tes - Эффективная температура на солнце - температура, которую ощущает человек, с поправкой на солнечный нагрев. Характеристика знойности погоды. Зависит от высоты солнца над горизонтом, облачности и скорости ветра. Ночью, в пасмурную погоду, а также при ветре 12 м/с и более поправка равна нулю.
P - Атмосферное давление - приведенное к уровню моря атмосферное давление.
Po - Атмосферное давление - измеренное на уровне метеостанции атмосферное давление.
Tmin - Минимальная температура - минимум температуры воздуха на высоте 2 м над землей.
Tmax - Максимальная температура - максимум температуры воздуха на высоте 2 м над землей.
R - Количество осадков - Количество выпавших осадков за период времени, мм. При наведении курсора мыши на число - период времени, за который выпало указанное количество осадков.
R24 - Количество осадков - Количество выпавших осадков за 24 часа, мм.
S - Снежный покров - Высота снежного покрова, см. При наведении курсора мыши на число - состояние снежного покрова и степень покрытия местности в баллах.